Regional Weather Roundup
Issued by NWS Charleston, SC

Current Version | Previous Version | Graphics & Text | Print | Product List | Glossary On
Versions: 1 2 3 4 5 6 7 8 9 10 11 12 13 14 15 16 17 18 19 20 21 22 23 24 25 26 27 28 29 30 31 32 33 34 35 36 37 38 39 40 41 42 43 44 45 46 47 48 49 50
000
ASUS42 KCHS 221725
RWRCHS

REGIONAL WEATHER ROUNDUP
NATIONAL WEATHER SERVICE CHARLESTON SC
100 PM EDT FRI AUG 22 2014

NOTE: "FAIR" INDICATES FEW OR NO CLOUDS BELOW 12,000 FEET WITH NO
SIGNIFICANT WEATHER AND/OR OBSTRUCTIONS TO VISIBILITY.

NOT ALL STATIONS ARE QUALITY CONTROLLED BY THE NATIONAL
WEATHER SERVICE. USE DATA WITH CAUTION...ESPECIALLY
DEWPOINT OBSERVATIONS.

SCZ027-030-031-034>040-042>050-221800-
...SOUTH CAROLINA...

CITY           SKY/WX    TMP DP  RH WIND       PRES   REMARKS
N CHARLESTON   MOSUNNY   97  72  44 W5        30.02F HX 105
WATERFRONT PRK   N/A     93 N/A N/A SW5G10      N/A
FORT JOHNSON   NOT AVBL
MOUNT PLEASANT FAIR      97  72  44 W7        30.01F HX 105
JOHNS ISLAND   SUNNY     99  75  47 CALM      30.02F HX 111
PINOPOLIS        N/A     95  73  49 CALM      29.93F HX 105
MONCKS CORNER  NOT AVBL
SUMMERVILLE    FAIR      95  73  49 W6        30.03S HX 105
BEAUFORT MCAS  PTSUNNY   97  73  45 VRB5      30.03F HX 107
BEAUFORT ARPT  FAIR      95  73  49 NW5       30.02F HX 105
HILTON HEAD IS SUNNY     95  75  52 NW5       30.04F HX 107
GEORGETOWN     NOT AVBL
WALTERBORO     SUNNY     97  61  30 W10       30.03S HX  97
ORANGEBURG     SUNNY     96  67  38 VRB5      30.02F HX 100
BARNWELL       FAIR      97  70  41 W8        30.03F HX 103
AIKEN          FAIR      95  72  46 NW6       30.07F HX 103
MANNING        FAIR      97  72  44 W6        30.01F HX 105
KINGSTREE      NOT AVBL
COLUMBIA       PTSUNNY   94  67  41 VRB7      30.02F HX  97
SUMTER         MOSUNNY   94  75  53 VRB2      30.01F HX 105
FLORENCE       MOSUNNY   95  70  44 NW7       30.01F HX 101
MYRTLE BEACH   SUNNY     93  70  46 W6        30.01F HX  99
N MYRTLE BEACH MOSUNNY   90  76  63 S5        30.01F HX 101

$$

GAZ063-065-086>088-099>101-113>116-118-119-134-136>141-150-221800-
...GEORGIA...

CITY           SKY/WX    TMP DP  RH WIND       PRES   REMARKS
SAVANNAH ARPT  MOSUNNY   97  72  44 W8        30.04F HX 105
HUNTER AAF     SUNNY     96  73  46 NW9       30.02F HX 105
FORT STEWART   MOSUNNY   97  71  42 VRB6G16   30.04F HX 104
STATESBORO     NOT AVBL
SYLVANIA       SUNNY     96  73  47 W8        30.05F HX 106
CLAXTON        FAIR      97  73  46 NW5       30.05F HX 107
THOMSON        MOSUNNY   94  77  56 W9        30.10F HX 108
AUGUSTA-BUSH   SUNNY     96  69  41 W12       30.03F HX 102
AUGUSTA-DANIEL SUNNY     96  69  41 NW9       30.06F HX 102
SWAINSBORO     FAIR      99  70  39 N12       30.06F HX 105
VIDALIA          N/A     95  72  46 N9        30.07F HX 103
ALMA           SUNNY     94  71  47 W7        30.07F HX 101
WAYCROSS       SUNNY     97  76  50 CALM      30.06F HX 111
JESUP            N/A     99  72  41 NW8       30.05F HX 107
BRUNSWICK      SUNNY     97  70  41 NW8       30.05F HX 103
SAINT SIMONS   SUNNY     95  71  45 VRB7      30.05F HX 102

$$

SCZ027-028-034-036>038-045-046-048>050-GAZ119-141-221800-
...LAKE AND SUPPLEMENTAL COASTAL OBSERVATIONS...

STATION/POSITION TIME  TEMP    WIND        PRES    WAVE   SWELL
                       AIR SEA DIR/SP/G            HT/PER HT/PER/DIR
                 (UTC) (F)     (DEG/KT/KT) (MB)    (FT/S) (FT/S/D)
UPR LAKE MARION  NOT AVBL
WINYAH BAY       1700   93     210/  4     1016.0S
LAKE MURRAY      1600   89     180/  4/  7 1016.3F
ACE BASIN NERRS  1700   96     320/  2     1017.0S
FORT PULASKI     1700   92     280/  6/  9 1017.3F
SAPELO ISLAND    1700   96     250/  3     1018.0F

$$

ANZ835-935-AMZ111-154-330-350-352-354-374-450-454-472-221800-
...C-MAN AND BUOY OBSERVATIONS...

STATION/POSITION TIME  TEMP    WIND        PRES    WAVE   SWELL
                       AIR SEA DIR/SP/G            HT/PER HT/PER/DIR
                 (UTC) (F)     (DEG/KT/KT) (MB)    (FT/S) (FT/S/D)
FOLLY BEACH CMAN 1700   89     180/  6/  8 1016.9F
BUOY 41004       1700   85 85  230/  4/  4 1016.6F   2/ 4   2/ 9
BUOY 41008       1700   85 87  290/  4/  4 1017.8F   1/ 8
5E ST. MARYS GA  1700      84                N/A     1/10
FRYING PAN BUOY  NOT AVBL
BUOY 41025       1700   80     260/  6/  8 1014.9F   2/ 8   2/ 50/ 8
CAPE LOOKOUT NC  1700   87     250/  9/ 13 1015.3F
BUOY 41002       1621   82 82  260/ 14/ 16 1018.0F   2/ 9   2/110/ 9
BUOY 41010       1700   83 86  170/  4/  6 1018.9F   2/ 9   2/100/ 9
BUOY 41012       NOT AVBL
ST AUGUSTINE FL  1700   84      80/  5/  5 1018.8F
CAPERS NEARSHORE NOT AVBL
FRIPP NEARSHORE  NOT AVBL


$$


USA.gov is the U.S. government's official web portal to all federal, state and local government web resources and services.